Eindhoven, Netherlands

1:10 AM CEST on May 01, 2017 (GMT +0200)
Eindhoven Air Base

Weather History for EHEH - March, 2013

Change the Weather History Date:

Monday, March 11, 2013

  Actual Average Record
Temperature  
Mean Temperature 28 °F -  
Max Temperature 30 °F 53 °F 59 °F (2002)
Min Temperature 26 °F 36 °F 24 °F (1999)
Degree Days  
Heating Degree Days 37    
Moisture  
Dew Point 23 °F    
Average Humidity 80    
Maximum Humidity 100    
Minimum Humidity 60    
Precipitation  
Precipitation 0.02 in - - ()
Sea Level Pressure  
Sea Level Pressure 29.71 in    
Wind  
Wind Speed 14 mph ()    
Max Wind Speed 22 mph    
Max Gust Speed -    
Visibility 5.8 miles    
Events Snow    
Averages and records for this station are not official NWS values.
T = Trace of Precipitation, MM = Missing Value Source: Averaged Metar Reports

Daily Weather History Graph

Daily Weather History Graph

Search for Another Location

Airport or City:

Trip Planner

Search our weather history database for the weather conditions in past years. The results will help you decide how hot, cold, wet, or windy it might be!

Date:

Astronomy

Mar. 11, 2013 Rise Set
Actual Time 7:01 AM CET 6:36 PM CET
Civil Twilight 6:28 AM CET 7:09 PM CET
Nautical Twilight 5:49 AM CET 7:48 PM CET
Astronomical Twilight 5:09 AM CET 8:27 PM CET
Moon 6:25 AM CET (3/11) 6:36 PM CET (3/11)
Length of Visible Light 12h 41m
Length of Day
11h 35m
Waning Crescent, 0% of the Moon is Illuminated
Mar 11
Waning Crescent
Mar 11
New
Mar 19
First Quarter
Mar 27
Full
Apr 3
Last Quarter

Hourly Weather History & Observations

Time (CET) Temp. Windchill Dew Point Humidity Pressure Visibility Wind Dir Wind Speed Gust Speed Precip Events Conditions
12:25 AM 30.2 °F 19.8 °F 24.8 °F 80% 29.71 in 6.2 mi NE 13.8 mph - N/A   Overcast
12:55 AM 30.2 °F 19.3 °F 23.0 °F 75% 29.71 in 6.2 mi NE 15.0 mph - N/A   Overcast
1:00 AM 30 °F - 24 °F 69% 29.72 in 28 mi NE 13.4 mph - -   Partly Cloudy
1:25 AM 30.2 °F 19.3 °F 23.0 °F 75% 29.71 in 6.2 mi NE 15.0 mph - N/A   Overcast
1:55 AM 30.2 °F 19.8 °F 23.0 °F 75% 29.71 in 6.2 mi NE 13.8 mph - N/A   Overcast
2:25 AM 30.2 °F 20.2 °F 23.0 °F 75% 29.71 in 6.2 mi NE 12.7 mph - N/A   Overcast
2:55 AM 28.4 °F 17.0 °F 21.2 °F 74% 29.71 in 6.2 mi NE 15.0 mph - N/A   Overcast
3:25 AM 28.4 °F 17.5 °F 21.2 °F 74% 29.71 in 6.2 mi NE 13.8 mph - N/A   Overcast
3:29 AM 28.4 °F 18.0 °F 21.2 °F 74% 29.71 in 6.2 mi NE 12.7 mph - N/A   Overcast
3:41 AM 28.4 °F 17.5 °F 21.2 °F 74% 29.71 in 6.2 mi NE 13.8 mph - N/A   Overcast
3:45 AM 28.4 °F 17.5 °F 21.2 °F 74% 29.71 in 6.2 mi NE 13.8 mph - N/A   Overcast
3:55 AM 28.4 °F 17.5 °F 21.2 °F 74% 29.71 in 6.2 mi NE 13.8 mph - N/A   Overcast
4:00 AM 29 °F - 22 °F 65% 29.72 in 25 mi NE 13.4 mph - -   Overcast
4:02 AM 28.4 °F 17.0 °F 21.2 °F 74% 29.71 in 6.2 mi NE 15.0 mph - N/A   Overcast
4:25 AM 28.4 °F 17.0 °F 21.2 °F 74% 29.71 in 6.2 mi NE 15.0 mph - N/A   Overcast
4:45 AM 28.4 °F 17.0 °F 21.2 °F 74% 29.71 in 6.2 mi NE 15.0 mph - N/A   Overcast
4:55 AM 28.4 °F 16.6 °F 21.2 °F 74% 29.71 in 6.2 mi NE 16.1 mph - N/A   Overcast
5:10 AM 28.4 °F 16.6 °F 21.2 °F 74% 29.71 in 6.2 mi NE 16.1 mph - N/A   Overcast
5:17 AM 28.4 °F 16.2 °F 23.0 °F 80% 29.71 in 6.2 mi NE 17.3 mph - N/A   Overcast
5:25 AM 28.4 °F 17.0 °F 23.0 °F 80% 29.71 in 6.2 mi NE 15.0 mph - N/A   Overcast
5:39 AM 28.4 °F 17.5 °F 23.0 °F 80% 29.71 in 6.2 mi NE 13.8 mph - N/A Snow Light Snow
5:50 AM 28.4 °F 17.5 °F 23.0 °F 80% 29.71 in 6.2 mi NE 13.8 mph - N/A Snow Light Snow
5:55 AM 28.4 °F 17.0 °F 23.0 °F 80% 29.71 in 6.2 mi NE 15.0 mph - N/A   Overcast
6:05 AM 28.4 °F 17.5 °F 24.8 °F 86% 29.71 in 6.2 mi NE 13.8 mph - N/A Snow Light Snow
6:06 AM 28.4 °F 18.0 °F 24.8 °F 86% 29.71 in 6.2 mi NE 12.7 mph - N/A Snow Light Snow
6:17 AM 28.4 °F 18.0 °F 24.8 °F 86% 29.71 in 3.1 mi NE 12.7 mph - N/A Snow Light Snow
6:18 AM 28.4 °F 18.0 °F 24.8 °F 86% 29.71 in 6.2 mi NE 12.7 mph - N/A Snow Light Snow
6:25 AM 28.4 °F 18.5 °F 24.8 °F 86% 29.71 in 6.2 mi NE 11.5 mph - N/A Snow Light Snow
6:31 AM 28.4 °F 18.0 °F 24.8 °F 86% 29.71 in 6.2 mi NE 12.7 mph - N/A Snow Light Snow
6:41 AM 28.4 °F 18.0 °F 24.8 °F 86% 29.71 in 6.2 mi NE 12.7 mph - N/A Snow Light Snow
6:46 AM 28.4 °F 17.5 °F 23.0 °F 80% 29.71 in 6.2 mi NE 13.8 mph - N/A Snow Light Snow
6:50 AM 28.4 °F 17.0 °F 23.0 °F 80% 29.71 in 6.2 mi NE 15.0 mph - N/A Snow Light Snow
6:55 AM 28.4 °F 17.5 °F 23.0 °F 80% 29.71 in 6.2 mi ENE 13.8 mph - N/A Snow Light Snow
7:07 AM 28.4 °F 16.6 °F 23.0 °F 80% 29.71 in 6.2 mi NE 16.1 mph - N/A Snow Light Snow
7:11 AM 28.4 °F 17.0 °F 23.0 °F 80% 29.71 in 6.2 mi NE 15.0 mph - N/A Snow Light Snow
7:15 AM 28.4 °F 17.5 °F 23.0 °F 80% 29.71 in 6.2 mi NE 13.8 mph - N/A   Overcast
7:20 AM 28.4 °F 18.0 °F 23.0 °F 80% 29.71 in 6.2 mi NE 12.7 mph - N/A   Overcast
7:25 AM 28.4 °F 18.0 °F 23.0 °F 80% 29.71 in 6.2 mi NE 12.7 mph - N/A Snow Light Snow
7:26 AM 28.4 °F 18.0 °F 23.0 °F 80% 29.71 in 6.2 mi NE 12.7 mph - N/A Snow Light Snow
7:55 AM 28.4 °F 17.0 °F 23.0 °F 80% 29.71 in 6.2 mi NE 15.0 mph - N/A Snow Light Snow
8:00 AM 28.4 °F 16.6 °F 23.0 °F 80% 29.71 in 6.2 mi NE 16.1 mph - N/A Snow Light Snow
8:04 AM 28.4 °F 17.0 °F 24.8 °F 86% 29.71 in 6.2 mi NE 15.0 mph - N/A Snow Light Snow
8:13 AM 28.4 °F 17.0 °F 23.0 °F 80% 29.71 in 6.2 mi NE 15.0 mph - N/A Snow Light Snow
8:17 AM 28.4 °F 17.0 °F 23.0 °F 80% 29.71 in 6.2 mi NE 15.0 mph - N/A Snow Light Snow
8:21 AM 28.4 °F 17.0 °F 23.0 °F 80% 29.71 in 6.2 mi NE 15.0 mph - N/A Snow Light Snow
8:25 AM 28.4 °F 16.6 °F 24.8 °F 86% 29.71 in 6.2 mi NE 16.1 mph - N/A Snow Light Snow
8:26 AM 28.4 °F 17.0 °F 24.8 °F 86% 29.71 in 4.3 mi NE 15.0 mph - N/A Snow Light Snow
8:35 AM 28.4 °F 17.5 °F 24.8 °F 86% 29.71 in 5.6 mi NE 13.8 mph - N/A Snow Light Snow
8:42 AM 28.4 °F 16.2 °F 23.0 °F 80% 29.71 in 5.0 mi NE 17.3 mph - N/A Snow Light Snow
8:55 AM 28.4 °F 17.0 °F 23.0 °F 80% 29.74 in 6.2 mi NE 15.0 mph - N/A Snow Light Snow
9:05 AM 28.4 °F 17.0 °F 24.8 °F 86% 29.74 in 5.6 mi NE 15.0 mph - N/A Snow Light Snow
9:15 AM 28.4 °F 17.0 °F 23.0 °F 80% 29.74 in 6.2 mi NE 15.0 mph - N/A Snow Light Snow
9:25 AM 28.4 °F 17.0 °F 23.0 °F 80% 29.74 in 6.2 mi ENE 15.0 mph - N/A Snow Light Snow
9:55 AM 28.4 °F 16.6 °F 23.0 °F 80% 29.74 in 6.2 mi NE 16.1 mph - N/A Snow Light Snow
10:00 AM 28 °F - 23 °F 74% 29.75 in 7 mi NE 15.7 mph - - Snow Light Snow
10:25 AM 28.4 °F 16.6 °F 23.0 °F 80% 29.74 in 6.2 mi ENE 16.1 mph - N/A   Mostly Cloudy
10:55 AM 28.4 °F 17.0 °F 23.0 °F 80% 29.74 in 6.2 mi ENE 15.0 mph - N/A Snow Light Snow
11:25 AM 28.4 °F 16.6 °F 23.0 °F 80% 29.74 in 6.2 mi ENE 16.1 mph - N/A Snow Light Snow
11:55 AM 30.2 °F 17.8 °F 21.2 °F 69% 29.71 in 6.2 mi ENE 19.6 mph - N/A   Mostly Cloudy
12:25 PM 30.2 °F 17.4 °F 21.2 °F 69% 29.71 in 6.2 mi NE 20.7 mph - N/A   Overcast
12:55 PM 28.4 °F 14.7 °F 19.4 °F 69% 29.71 in 6.2 mi NE 21.9 mph - N/A   Overcast
1:00 PM 29 °F - 21 °F 60% 29.73 in 19 mi ENE 20.1 mph - -   Partly Cloudy
1:25 PM 30.2 °F 19.3 °F 21.2 °F 69% 29.71 in 6.2 mi NE 15.0 mph - N/A   Overcast
1:55 PM 30.2 °F 18.1 °F 21.2 °F 69% 29.71 in 4.3 mi NE 18.4 mph - N/A Snow Light Snow
2:25 PM 30.2 °F 18.9 °F 21.2 °F 69% 29.71 in 4.3 mi ENE 16.1 mph - N/A Snow Light Snow
2:55 PM 28.4 °F 16.2 °F 23.0 °F 80% 29.71 in 5.0 mi ENE 17.3 mph - N/A Snow Light Snow
3:25 PM 28.4 °F 17.0 °F 23.0 °F 80% 29.71 in - ENE 15.0 mph - N/A Snow Light Snow
3:55 PM 28.4 °F 16.6 °F 24.8 °F 86% 29.71 in 1.9 mi NE 16.1 mph - N/A Snow Light Snow
4:00 PM 28 °F - 24 °F 79% 29.73 in 2 mi ENE 15.7 mph - - Snow Light Snow
4:25 PM 28.4 °F 17.0 °F 24.8 °F 86% 29.71 in 1.6 mi NE 15.0 mph - N/A Snow Light Snow
4:55 PM 28.4 °F 16.6 °F 24.8 °F 86% 29.71 in 2.5 mi ENE 16.1 mph - N/A Snow Light Snow
5:25 PM 28.4 °F 18.0 °F 26.6 °F 93% 29.71 in 3.1 mi NE 12.7 mph - N/A Snow Light Snow
5:55 PM 28.4 °F 16.2 °F 24.8 °F 86% 29.71 in 6.2 mi ENE 17.3 mph - N/A Snow Light Snow Grains
6:25 PM 28.4 °F 18.0 °F 24.8 °F 86% 29.71 in 6.2 mi ENE 12.7 mph - N/A Snow Light Snow
6:55 PM 28.4 °F 18.0 °F 24.8 °F 86% 29.71 in 3.7 mi ENE 12.7 mph - N/A Snow Light Snow
7:00 PM 27 °F - 25 °F 88% 29.74 in 6 mi NE 13.4 mph - - Snow Light Snow Showers
7:25 PM 26.6 °F 14.7 °F 24.8 °F 93% 29.71 in 6.2 mi NE 15.0 mph - N/A Snow Light Snow
7:55 PM 26.6 °F 15.2 °F 24.8 °F 93% 29.71 in - NE 13.8 mph - N/A Snow Light Snow
8:25 PM 26.6 °F 14.3 °F 24.8 °F 93% 29.71 in 3.1 mi NE 16.1 mph - N/A Snow Light Snow
8:55 PM 26.6 °F 14.7 °F 24.8 °F 93% 29.71 in 3.1 mi NE 15.0 mph - N/A Snow Light Snow
9:25 PM 26.6 °F 14.3 °F 26.6 °F 100% 29.71 in 3.7 mi NE 16.1 mph - N/A Snow Light Snow
9:55 PM 28.4 °F 17.0 °F 24.8 °F 86% 29.71 in 6.2 mi NE 15.0 mph - N/A Snow Light Snow
10:00 PM 28 °F - 25 °F 84% 29.74 in 7 mi NE 15.7 mph - - Snow Light Snow
10:25 PM 28.4 °F 17.0 °F 24.8 °F 86% 29.71 in 6.2 mi NE 15.0 mph - N/A Snow Light Snow
10:55 PM 28.4 °F 17.0 °F 24.8 °F 86% 29.71 in 6.2 mi ENE 15.0 mph - N/A   Mostly Cloudy